www.pogodaiklimat.ru

Погода и климат >> Архив погоды >> Индонезия >> Meulaboh


ПОГОДА в Meulaboh

  • Прогноз погоды в Meulaboh
  • Монитор погоды в Meulaboh
  • Климат города

АРХИВ ПОГОДЫ в Meulaboh

Время (UTC), дата Ветер
(напр.,м/с)
 
Видим.   Явления Облачность Т
(С)
Тd
(С)
f
(%)
Тe
(С)
Тes
(С)
Комфортность P
(гПа)
Po
(гПа)
Тmin
(С)
Tmax
(С)
R
(мм)
R24
(мм)
S
(см)
21 10.10 С 1 5000 м дымка 10/5
[Cu med, cong Ac As]
+24.1 +23.3 95 +32 +32 очень
душно
1009.3 1008.7
00 11.10 С 2 8000 м 10/6 450 м
[Cb cap Ac und Ci ing]
+24.0 +23.2 95 +32 +32 очень
душно
1010.8 1010.2 +23.2 57
03 11.10 С 1 8000 м 9/5 450 м
[Cb cap Ac As Ci sp]
+25.9 +25.1 95 +37 +42 очень
душно
1013.1 1012.5
06 11.10 З 4 4000 м в посл. час дождь 10/5 400 м
[Cb cap Ac As]
+25.0 +24.9 99 +35 +37 очень
душно
1012.5 1011.9 0.0
09 11.10 СЗ 2 5000 м слабый дождь 10/8 400 м
[Cb cap Ac lent]
+26.1 +24.6 91 +37 +37 очень
душно
1011.2 1010.6 1
12 11.10 СЗ 2 4000 м слабый дождь 10/8 400 м
[Cb cap Ac lent]
+24.7 +24.4 98 +34 +34 очень
душно
1011.8 1011.2 +28.3 6
15 11.10 СВ 1 5000 м мгла {дождь} 9/6 420 м
[Sc Ac As Ci sp]
+23.7 +23.0 96 +31 +31 очень
душно
1013.7 1013.1 0.2
18 11.10 штиль 0 5000 м мгла {дождь} 9/5 480 м
[Sc As op Ci sp]
+23.9 +23.2 96 +32 +32 очень
душно
1013.4 1012.8 0.2
21 11.10 штиль 0 5000 м 8/4 500 м
[Sc As op Ci sp]
+23.6 +23.3 98 +32 +32 очень
душно
1011.5 1010.9
00 12.10 В 2 4000 м дымка 9/4 500 м
[Sc Ac As Ci sp]
+23.4 +23.1 98 +33 +33 очень
душно
1012.5 1011.9 +23.0 7
03 12.10 З 3 8000 м шквал 10/6 400 м
[Cb cap Ac As Ci sp]
+26.6 +25.0 91 +38 +40 очень
душно
1014.8 1014.2
06 12.10 СЗ 2 8000 м 10/6 400 м
[Cb cap Ac As Ci sp]
+28.0 +25.3 85 +41 +45 опасность
перегрева
1012.7 1012.1
09 12.10 С 3 6000 м осадки на расстоянии 10/8
[Cb cap Ac As]
+26.5 +23.9 86 +37 +37 очень
душно
1010.7 1010.1
12 12.10 З 4 4000 м в посл. час дождь 10/8 420 м
[Cb cap Ac As]
+23.8 +22.7 94 +31 +31 очень
душно
1013.6 1013.0 +28.6 35
15 12.10 С 1 3000 м дождь 10/6 360 м
[Cb cap Ac trans]
+23.1 +23.1 100 +32 +32 очень
душно
1016.0 1015.4 5
18 12.10 В 1 5000 м дымка {дождь} 10/6 360 м
[Cb cap Ac trans]
+22.6 +22.6 100 +31 +31 очень
душно
1013.9 1013.3 3
21 12.10 штиль 0 6000 м 9/5 480 м
[Sc Ac As Ci sp]
+22.5 +22.4 99 +30 +30 очень
душно
1011.6 1011.0
00 13.10 В 1 6000 м 9/4 480 м
[Sc Ac As Ci sp]
+22.2 +21.9 98 +29 +29 очень
душно
1013.2 1012.6 +22.0 43
03 13.10 Ю 2 7000 м 9/6 450 м
[Sc Ac As Ci sp]
+26.1 +24.9 93 +37 +40 очень
душно
1014.9 1014.3
06 13.10 ЮЗ 1 8000 м 9/8 450 м
[Sc Ac As Ci sp]
+28.2 +24.5 80 +40 +43 очень
душно
1012.0 1011.4
09 13.10 З 2 8000 м 9/6 500 м
[Sc Ac As Ci sp]
+27.0 +25.4 91 +39 +42 очень
душно
1009.6 1009.0
12 13.10 ЮЗ 1 6000 м 9/6 500 м
[Sc Ac As Ci sp]
+26.2 +25.1 94 +38 +38 очень
душно
1011.2 1010.6 +30.0
15 13.10 штиль 0 8000 м 9/4 570 м
[Cu med, cong Ac und Ci]
+24.8 +24.0 95 +34 +34 очень
душно
1013.2 1012.6
18 13.10 СВ 1 7000 м 9/4 540 м
[Sc Ac und Ci sp]
+24.6 +24.0 96 +34 +34 очень
душно
1012.2 1011.6
21 13.10 В 2 5000 м осадки на расстоянии 9/6 420 м
[Cb cap Ac As Ci fib]
+24.4 +24.3 99 +34 +34 очень
душно
1011.0 1010.4
00 14.10 ЮВ 2 6000 м гроза без осадков 9/6 420 м
[Cb cap Ac As Ci fib]
+24.3 +24.0 98 +33 +33 очень
душно
1012.0 1011.4 +23.8
03 14.10 ЮВ 2 10 км 8/4 500 м
[Cu med, cong Ac trans Ci sp]
+28.6 +25.5 83 +42 +47 опасность
перегрева
1014.7 1014.1
06 14.10 ЮЗ 3 10 км 8/5 500 м
[Sc Ac und Ci sp]
+31.4 +27.1 78 +49 +55 опасность
перегрева
1012.0 1011.4
09 14.10 ЮЗ 3 2500 м гроза, ливневой дождь 9/9 360 м
[Cb cap Ac As Ci ing]
+27.1 +25.3 90 +39 +40 очень
душно
1010.4 1009.8 0.4
12 14.10 СВ 1 1500 м сильная гроза, ливневой дождь 10/8 360 м
[Cb cap Ac As]
+24.5 +23.9 96 +33 +33 очень
душно
1011.9 1011.3 +31.1 9
15 14.10 В 1 5000 м дымка {дождь} 10/5 450 м
[Sc Ac As]
+23.3 +23.3 100 +33 +33 очень
душно
1013.8 1013.2 2
18 14.10 С 1 6000 м 10/5 450 м
[Sc Ac und]
+23.6 +23.3 98 +32 +32 очень
душно
1012.8 1012.2 2
21 14.10 СВ 1 5000 м мгла 10/6
[Cb cap Ac As]
+23.7 +23.6 99 +32 +32 очень
душно
1011.2 1010.6
00 15.10 СВ 1 7000 м {дождь} 9/5 480 м
[Cu med, cong Ac trans Ci sp]
+23.3 +23.0 98 +33 +33 очень
душно
1012.5 1011.9 +22.8 11
03 15.10 ЮЗ 2 10 км 8/5 500 м
[Cu med, cong As op Ci sp]
+28.1 +25.7 87 +42 +46 опасность
перегрева
1014.1 1013.4
06 15.10 ЮЗ 3 10 км 6/4 500 м
[Cu med, cong As op Ci sp]
+29.6 +26.4 83 +45 +54 опасность
перегрева
1012.1 1011.4
09 15.10 штиль 0 4000 м слабый ливневой дождь, в посл. час гроза 9/5 480 м
[Cb calv As op Ci sp]
+26.8 +25.7 94 +40 +43 очень
душно
1010.8 1009.8 2
12 15.10 В 2 2000 м дождь {гроза} 10/6 450 м
[Cb calv As op]
+24.8 +24.0 95 +34 +34 очень
душно
1011.9 1011.3 +30.4 22
15 15.10 штиль 0 1000 м дождь 10/6
[Cb cap Ac As]
+23.2 +23.1 99 +32 +32 очень
душно
1015.6 1015.0 118
18 15.10 СВ 1 2000 м слабый дождь 10/5
[Cb cap Ac As]
+22.9 +22.9 100 +32 +32 очень
душно
1015.4 1014.8 20
21 15.10 ЮВ 1 5000 м в посл. час дождь 10/6 360 м
[Cb cap Ac As]
+22.2 +22.2 100 +30 +30 очень
душно
1011.3 1010.7 2
00 16.10 СВ 1 5000 м дымка {дождь} 9/6 450 м
[Sc Ac As Ci sp]
+22.5 +22.5 100 +30 +31 очень
душно
1013.0 1012.4 +21.0 171
03 16.10 ЮВ 2 7000 м 9/6 450 м
[Sc Ac As Ci sp]
+25.3 +24.6 96 +36 +39 очень
душно
1015.3 1014.7
06 16.10 Ю 4 7000 м 9/5 480 м
[Sc As op Ci sp]
+28.2 +24.7 81 +40 +45 очень
душно
1012.9 1012.3
09 16.10 Ю 2 7000 м 9/5 480 м
[Sc Ac trans Ci sp]
+28.2 +23.9 78 +39 +42 очень
душно
1010.6 1010.0
12 16.10 Ю 2 6000 м 10/6 400 м
[Cb cap Ac As]
+26.4 +23.6 85 +36 +36 очень
душно
1012.3 1011.7 +29.3
15 16.10 В 1 7000 м 10/6 420 м
[Sc Ac lent]
+24.6 +24.2 98 +34 +34 очень
душно
1014.6 1014.0
18 16.10 В 2 2500 м слабый дождь 10/8 400 м
[Cb cap Ac lent]
+24.6 +24.5 99 +34 +34 очень
душно
1013.6 1013.0 16
21 16.10 СВ 2 1000 м дождь 10/9
[Cb cap Ac As]
+22.8 +22.7 99 +31 +31 очень
душно
1012.8 1012.2 26
00 17.10 СВ 1 4000 м слабый дождь 10/8 300 м
[Cb calv As op]
+23.0 +22.9 99 +32 +32 очень
душно
1014.4 1013.8 +22.6 31
03 17.10 штиль 0 3000 м дождь 10/6 450 м
[Cb calv As op]
+22.8 +22.5 98 +31 +32 очень
душно
1017.2 1016.5 17
06 17.10 ЮВ 1 5000 м {дождь} 10/5 480 м
[Sc diur, vesp As op]
+25.0 +23.9 94 +34 +37 очень
душно
1015.2 1014.6 3
09 17.10 ЮВ 2 3000 м слабый дождь 10/6 420 м
[Sc Ac lent]
+24.9 +24.4 97 +35 +35 очень
душно
1012.2 1011.6 1
12 17.10 ЮВ 1 5000 м в посл. час дождь 10/6 420 м
[Sc Ac lent]
+24.4 +24.3 99 +34 +34 очень
душно
1012.1 1011.5 +26.5 0.5
15 17.10 штиль 0 5000 м мгла 10/6 450 м
[Sc Ac As]
+23.3 +23.0 98 +33 +33 очень
душно
1013.6 1013.0

 

Местоположение метеостанции Meulaboh (Индонезия): широта 4.25 долгота 96.12 высота над уровнем моря 90 м.

В архиве по умолчанию представлена погода в Meulaboh за последнюю неделю. Архивные данные за месяц целиком и за предыдущие месяцы, начиная с января 2011 года, Вы можете получить, выбрав интересующий диапазон дат из раскрывающегося списка и нажав кнопку "Ввод!".


*Определитесь, кто Вы:
робот инопланетянин человек

Внимание! Время в таблицах - всемирное. Для получения местного времени необходимо прибавить поправку, которая в Meulaboh равна 7 ч.

Смотрите также архив погоды в соседних городах и на ближайших метеорологических станциях:

Погода в Banda Aceh (Индонезия) (161 км)
Погода в Lhokseumawe (Индонезия) (162 км)
Погода в Sabang (Индонезия) (201 км)
Погода в Belawan (Индонезия) (291 км)
Погода в Medan Polonia Int Airport (Индонезия) (294 км)
Погода в Gunungsitoli (Индонезия) (349 км)
Погода в Sibolga (Индонезия) (429 км)
Погода в Langkawi (Малайзия) (462 км)
Погода в Penang (Малайзия) (474 км)
Погода в Phuket (Таиланд) (476 км)

Пояснения к столбцам:

Ветер - указаны скорость ветра в м/с - средняя за 10 мин, порывы в срок и между сроками (в фигурных скобках) и направление, откуда дует ветер: С - северный, СВ - северо-восточный, В - восточный, ЮВ - юго-восточный, Ю - южный, ЮЗ - юго-западный, З - западный, СЗ - северо-западный.
Видимость - горизонтальная дальность видимости в метрах или километрах. При видимости от 1 до 10 км при отсутствии осадков обычно наблюдается дымка, при ухудшении видимости до 1 км и менее - туман. В сухую погоду видимость может ухудшаться дымом, пылью или мглою.
Явления - указаны атмосферные явления, наблюдавшиеся в срок или в последний час перед сроком; фигурными скобками обозначены явления, наблюдавшиеся между сроками (за 1-3 часа до срока); квадратными скобками обозначены град или гололедные отложения с указанием их диаметра в мм.
Облачность - указаны через наклонную черту общая и нижняя облачность в баллах и высота нижней границы облаков в метрах; квадратными скобками обозначены формы облаков: Ci - перистые, Cs - перисто-слоистые, Cc - перисто-кучевые, Ac - высококучевые, As - высокослоистые, Sc - слоисто-кучевые, Ns - слоисто-дождевые, Cu - кучевые, Cb - кучево-дождевые. Подробнее классификацию облаков см. в Атласе облаков (PDF).
T - Температура воздуха - температура, измеренная на высоте 2 м над землей.
Td - Температура точки росы - температура, при понижении до которой содержащийся в воздухе водяной пар достигнет насыщения.
f - Относительная влажность воздуха - влажноcть воздуха, измеренная на высоте 2 м над землей.
Te - Эффективная температура - температура, которую ощущает одетый по сезону человек в тени. Характеристика душности погоды. При расчете учитывается влияние влажности воздуха и скорости ветра на теплоощущения человека.
Tes - Эффективная температура на солнце - температура, которую ощущает человек, с поправкой на солнечный нагрев. Характеристика знойности погоды. Зависит от высоты солнца над горизонтом, облачности и скорости ветра. Ночью, в пасмурную погоду, а также при ветре 12 м/с и более поправка равна нулю.
P - Атмосферное давление - приведенное к уровню моря атмосферное давление.
Po - Атмосферное давление - измеренное на уровне метеостанции атмосферное давление.
Tmin - Минимальная температура - минимум температуры воздуха на высоте 2 м над землей.
Tmax - Максимальная температура - максимум температуры воздуха на высоте 2 м над землей.
R - Количество осадков - Количество выпавших осадков за период времени, мм. При наведении курсора мыши на число - период времени, за который выпало указанное количество осадков.
R24 - Количество осадков - Количество выпавших осадков за 24 часа, мм.
S - Снежный покров - Высота снежного покрова, см. При наведении курсора мыши на число - состояние снежного покрова и степень покрытия местности в баллах.